Time,TemperatureF,DewpointF,PressureIn,WindDirection,WindDirectionDegrees,WindSpeedMPH,WindSpeedGustMPH,Humidity,HourlyPrecipIn,Conditions,Clouds,dailyrainin,SoftwareType,DateUTC
2013-10-11 00:00:00,75.0,71.0,30.02,East,86,0.0,-999.0,86,-99.99,,,0.00,weatherlink.com 1.10,2013-10-11 04:00:00,
2013-10-11 00:15:00,74.7,71.0,30.02,East,99,2.0,-999.0,87,-99.99,,,0.00,weatherlink.com 1.10,2013-10-11 04:15:00,
2013-10-11 00:30:00,74.4,70.0,30.01,ENE,77,3.0,-999.0,87,-99.99,,,0.00,weatherlink.com 1.10,2013-10-11 04:30:00,
2013-10-11 00:45:00,74.0,70.0,30.01,East,82,0.0,-999.0,88,-99.99,,,0.00,weatherlink.com 1.10,2013-10-11 04:45:00,
2013-10-11 01:00:00,73.8,70.0,30.00,ENE,71,0.0,-999.0,88,-99.99,,,0.00,weatherlink.com 1.10,2013-10-11 05:00:00,
2013-10-11 01:31:00,73.2,70.0,29.99,ENE,65,0.0,-999.0,89,-99.99,,,0.00,weatherlink.com 1.10,2013-10-11 05:31:00,
2013-10-11 01:46:00,73.0,70.0,29.99,ENE,65,0.0,-999.0,90,-99.99,,,0.00,weatherlink.com 1.10,2013-10-11 05:46:00,
2013-10-11 02:01:00,72.7,70.0,29.99,ENE,66,0.0,-999.0,90,-99.99,,,0.00,weatherlink.com 1.10,2013-10-11 06:01:00,
2013-10-11 02:16:00,72.4,69.0,29.98,ENE,66,0.0,-999.0,90,-99.99,,,0.00,weatherlink.com 1.10,2013-10-11 06:16:00,
2013-10-11 02:31:00,72.2,70.0,29.98,East,80,0.0,-999.0,91,-99.99,,,0.00,weatherlink.com 1.10,2013-10-11 06:31:00,
2013-10-11 02:46:00,72.1,69.0,29.98,ENE,71,0.0,-999.0,91,-99.99,,,0.00,weatherlink.com 1.10,2013-10-11 06:46:00,
2013-10-11 03:01:00,71.9,70.0,29.98,ENE,74,0.0,-999.0,92,-99.99,,,0.00,weatherlink.com 1.10,2013-10-11 07:01:00,
2013-10-11 03:16:00,71.6,69.0,29.98,ENE,78,0.0,-999.0,92,-99.99,,,0.00,weatherlink.com 1.10,2013-10-11 07:16:00,
2013-10-11 03:31:00,71.5,69.0,29.98,ENE,75,0.0,-999.0,93,-99.99,,,0.00,weatherlink.com 1.10,2013-10-11 07:31:00,
2013-10-11 03:46:00,71.3,69.0,29.98,ENE,76,2.0,-999.0,93,-99.99,,,0.00,weatherlink.com 1.10,2013-10-11 07:46:00,
2013-10-11 04:01:00,71.2,69.0,29.98,ENE,76,0.0,-999.0,93,-99.99,,,0.00,weatherlink.com 1.10,2013-10-11 08:01:00,
2013-10-11 04:16:00,71.0,69.0,29.97,ENE,75,0.0,-999.0,94,-99.99,,,0.00,weatherlink.com 1.10,2013-10-11 08:16:00,
2013-10-11 04:31:00,70.8,69.0,29.98,ENE,74,0.0,-999.0,94,-99.99,,,0.00,weatherlink.com 1.10,2013-10-11 08:31:00,
2013-10-11 04:46:00,70.7,69.0,29.98,ENE,73,0.0,-999.0,94,-99.99,,,0.00,weatherlink.com 1.10,2013-10-11 08:46:00,
2013-10-11 05:01:00,70.6,69.0,29.98,ENE,71,0.0,-999.0,95,-99.99,,,0.00,weatherlink.com 1.10,2013-10-11 09:01:00,
2013-10-11 05:16:00,70.6,69.0,29.98,ENE,78,0.0,-999.0,94,-99.99,,,0.00,weatherlink.com 1.10,2013-10-11 09:16:00,
2013-10-11 05:31:00,70.4,69.0,29.98,East,80,0.0,-999.0,95,-99.99,,,0.00,weatherlink.com 1.10,2013-10-11 09:31:00,
2013-10-11 05:46:00,70.3,69.0,29.99,East,81,0.0,-999.0,95,-99.99,,,0.00,weatherlink.com 1.10,2013-10-11 09:46:00,
2013-10-11 06:01:00,70.1,68.0,30.00,East,81,0.0,-999.0,94,-99.99,,,0.00,weatherlink.com 1.10,2013-10-11 10:01:00,
2013-10-11 06:16:00,69.9,69.0,30.00,East,81,0.0,-999.0,95,-99.99,,,0.00,weatherlink.com 1.10,2013-10-11 10:16:00,
2013-10-11 06:31:00,69.7,68.0,30.00,East,81,0.0,-999.0,95,-99.99,,,0.00,weatherlink.com 1.10,2013-10-11 10:31:00,
2013-10-11 06:46:00,69.5,68.0,30.01,East,81,0.0,-999.0,95,-99.99,,,0.00,weatherlink.com 1.10,2013-10-11 10:46:00,
2013-10-11 07:01:00,69.3,68.0,30.02,East,81,0.0,-999.0,95,-99.99,,,0.00,weatherlink.com 1.10,2013-10-11 11:01:00,
2013-10-11 07:16:00,69.2,68.0,30.02,East,81,0.0,-999.0,96,-99.99,,,0.00,weatherlink.com 1.10,2013-10-11 11:16:00,
2013-10-11 07:31:00,69.1,68.0,30.02,East,81,0.0,-999.0,96,-99.99,,,0.00,weatherlink.com 1.10,2013-10-11 11:31:00,
2013-10-11 07:46:00,69.1,68.0,30.02,East,81,0.0,-999.0,96,-99.99,,,0.00,weatherlink.com 1.10,2013-10-11 11:46:00,
2013-10-11 08:01:00,69.4,69.0,30.03,East,81,0.0,-999.0,97,-99.99,,,0.00,weatherlink.com 1.10,2013-10-11 12:01:00,
2013-10-11 08:16:00,69.9,69.0,30.03,East,79,0.0,-999.0,97,-99.99,,,0.00,weatherlink.com 1.10,2013-10-11 12:16:00,
2013-10-11 08:31:00,70.8,70.0,30.04,ENE,74,0.0,-999.0,96,-99.99,,,0.00,weatherlink.com 1.10,2013-10-11 12:31:00,
2013-10-11 08:46:00,71.8,70.0,30.04,East,85,0.0,-999.0,94,-99.99,,,0.00,weatherlink.com 1.10,2013-10-11 12:46:00,
2013-10-11 09:16:00,74.8,71.0,30.04,East,82,3.0,-999.0,87,-99.99,,,0.00,weatherlink.com 1.10,2013-10-11 13:16:00,
2013-10-11 09:31:00,76.5,71.0,30.05,East,92,4.0,-999.0,84,-99.99,,,0.00,weatherlink.com 1.10,2013-10-11 13:31:00,
2013-10-11 09:46:00,78.2,72.0,30.04,ENE,61,1.0,-999.0,82,-99.99,,,0.00,weatherlink.com 1.10,2013-10-11 13:46:00,
2013-10-11 10:02:00,79.8,72.0,30.05,East,81,4.0,-999.0,78,-99.99,,,0.00,weatherlink.com 1.10,2013-10-11 14:02:00,
2013-10-11 10:17:00,81.2,74.0,30.05,ENE,70,4.0,-999.0,79,-99.99,,,0.00,weatherlink.com 1.10,2013-10-11 14:17:00,
2013-10-11 10:32:00,82.5,74.0,30.04,ESE,107,7.0,-999.0,75,-99.99,,,0.00,weatherlink.com 1.10,2013-10-11 14:32:00,
2013-10-11 10:47:00,83.6,75.0,30.05,NE,43,1.0,-999.0,74,-99.99,,,0.00,weatherlink.com 1.10,2013-10-11 14:47:00,
2013-10-11 11:02:00,84.7,72.0,30.05,ESE,106,8.0,-999.0,65,-99.99,,,0.00,weatherlink.com 1.10,2013-10-11 15:02:00,
2013-10-11 11:17:00,85.9,71.0,30.05,East,86,0.0,-999.0,62,-99.99,,,0.00,weatherlink.com 1.10,2013-10-11 15:17:00,
2013-10-11 11:32:00,86.9,73.0,30.05,ENE,67,0.0,-999.0,64,-99.99,,,0.00,weatherlink.com 1.10,2013-10-11 15:32:00,
2013-10-11 11:47:00,87.6,72.0,30.05,East,82,0.0,-999.0,61,-99.99,,,0.00,weatherlink.com 1.10,2013-10-11 15:47:00,
2013-10-11 12:02:00,87.5,70.0,30.04,NNE,15,0.0,-999.0,57,-99.99,,,0.00,weatherlink.com 1.10,2013-10-11 16:02:00,
2013-10-11 12:17:00,87.8,73.0,30.04,ENE,78,0.0,-999.0,62,-99.99,,,0.00,weatherlink.com 1.10,2013-10-11 16:17:00,
2013-10-11 12:32:00,89.2,71.0,30.03,East,82,4.0,-999.0,55,-99.99,,,0.00,weatherlink.com 1.10,2013-10-11 16:32:00,
2013-10-11 12:47:00,89.7,70.0,30.02,NNE,15,0.0,-999.0,53,-99.99,,,0.00,weatherlink.com 1.10,2013-10-11 16:47:00,
2013-10-11 13:02:00,90.1,70.0,30.02,ENE,62,6.0,-999.0,52,-99.99,,,0.00,weatherlink.com 1.10,2013-10-11 17:02:00,
2013-10-11 13:17:00,91.2,71.0,30.01,East,80,1.0,-999.0,52,-99.99,,,0.00,weatherlink.com 1.10,2013-10-11 17:17:00,
2013-10-11 13:32:00,90.9,70.0,30.00,East,98,0.0,-999.0,50,-99.99,,,0.00,weatherlink.com 1.10,2013-10-11 17:32:00,
2013-10-11 13:47:00,90.2,68.0,29.99,ENE,74,0.0,-999.0,48,-99.99,,,0.00,weatherlink.com 1.10,2013-10-11 17:47:00,
2013-10-11 14:02:00,89.8,69.0,29.98,NNE,19,0.0,-999.0,50,-99.99,,,0.00,weatherlink.com 1.10,2013-10-11 18:02:00,
2013-10-11 14:17:00,90.3,69.0,29.98,NE,42,0.0,-999.0,49,-99.99,,,0.00,weatherlink.com 1.10,2013-10-11 18:17:00,
2013-10-11 14:32:00,91.0,68.0,29.98,NNE,29,0.0,-999.0,47,-99.99,,,0.00,weatherlink.com 1.10,2013-10-11 18:32:00,
2013-10-11 14:47:00,89.8,67.0,29.98,ENE,66,0.0,-999.0,47,-99.99,,,0.00,weatherlink.com 1.10,2013-10-11 18:47:00,
2013-10-11 15:02:00,90.3,67.0,29.97,NNE,32,1.0,-999.0,47,-99.99,,,0.00,weatherlink.com 1.10,2013-10-11 19:02:00,
2013-10-11 15:17:00,90.3,67.0,29.97,NW,320,2.0,-999.0,46,-99.99,,,0.00,weatherlink.com 1.10,2013-10-11 19:17:00,
2013-10-11 15:32:00,90.5,69.0,29.97,ENE,70,4.0,-999.0,50,-99.99,,,0.00,weatherlink.com 1.10,2013-10-11 19:32:00,
2013-10-11 15:47:00,89.0,69.0,29.97,North,360,0.0,-999.0,52,-99.99,,,0.00,weatherlink.com 1.10,2013-10-11 19:47:00,
2013-10-11 16:02:00,87.7,68.0,29.96,North,355,0.0,-999.0,53,-99.99,,,0.00,weatherlink.com 1.10,2013-10-11 20:02:00,
2013-10-11 16:17:00,87.4,66.0,29.96,NNW,336,0.0,-999.0,49,-99.99,,,0.00,weatherlink.com 1.10,2013-10-11 20:17:00,
2013-10-11 16:32:00,86.6,67.0,29.96,ESE,105,0.0,-999.0,52,-99.99,,,0.00,weatherlink.com 1.10,2013-10-11 20:32:00,
2013-10-11 16:47:00,87.1,68.0,29.96,East,91,0.0,-999.0,53,-99.99,,,0.00,weatherlink.com 1.10,2013-10-11 20:47:00,
2013-10-11 17:02:00,87.0,68.0,29.96,NE,55,0.0,-999.0,53,-99.99,,,0.00,weatherlink.com 1.10,2013-10-11 21:02:00,
2013-10-11 17:17:00,85.9,67.0,29.95,ENE,77,0.0,-999.0,53,-99.99,,,0.00,weatherlink.com 1.10,2013-10-11 21:17:00,
2013-10-11 17:32:00,86.5,68.0,29.96,ENE,70,0.0,-999.0,54,-99.99,,,0.00,weatherlink.com 1.10,2013-10-11 21:32:00,
2013-10-11 17:47:00,88.1,68.0,29.96,NNE,28,3.0,-999.0,51,-99.99,,,0.00,weatherlink.com 1.10,2013-10-11 21:47:00,
2013-10-11 18:02:00,89.0,69.0,29.95,NE,55,0.0,-999.0,52,-99.99,,,0.00,weatherlink.com 1.10,2013-10-11 22:02:00,
2013-10-11 18:17:00,88.2,69.0,29.96,ENE,76,0.0,-999.0,53,-99.99,,,0.00,weatherlink.com 1.10,2013-10-11 22:17:00,
2013-10-11 18:32:00,86.6,67.0,29.96,ENE,61,5.0,-999.0,52,-99.99,,,0.00,weatherlink.com 1.10,2013-10-11 22:32:00,
2013-10-11 18:47:00,85.0,67.0,29.96,East,82,0.0,-999.0,55,-99.99,,,0.00,weatherlink.com 1.10,2013-10-11 22:47:00,
2013-10-11 19:02:00,83.6,67.0,29.96,East,82,0.0,-999.0,57,-99.99,,,0.00,weatherlink.com 1.10,2013-10-11 23:02:00,
2013-10-11 19:17:00,81.6,68.0,29.96,East,82,0.0,-999.0,63,-99.99,,,0.00,weatherlink.com 1.10,2013-10-11 23:17:00,
2013-10-11 19:32:00,80.8,69.0,29.97,NE,51,0.0,-999.0,67,-99.99,,,0.00,weatherlink.com 1.10,2013-10-11 23:32:00,
2013-10-11 19:47:00,79.9,70.0,29.97,NW,315,0.0,-999.0,72,-99.99,,,0.00,weatherlink.com 1.10,2013-10-11 23:47:00,
2013-10-11 20:02:00,79.7,68.0,29.98,North,350,0.0,-999.0,68,-99.99,,,0.00,weatherlink.com 1.10,2013-10-12 00:02:00,
2013-10-11 20:18:00,79.8,69.0,29.98,North,350,0.0,-999.0,69,-99.99,,,0.00,weatherlink.com 1.10,2013-10-12 00:18:00,
2013-10-11 20:33:00,79.0,69.0,29.98,North,350,0.0,-999.0,71,-99.99,,,0.00,weatherlink.com 1.10,2013-10-12 00:33:00,
2013-10-11 20:48:00,78.4,69.0,29.98,North,350,0.0,-999.0,72,-99.99,,,0.00,weatherlink.com 1.10,2013-10-12 00:48:00,
2013-10-11 21:03:00,77.6,67.0,29.99,North,350,0.0,-999.0,69,-99.99,,,0.00,weatherlink.com 1.10,2013-10-12 01:03:00,
2013-10-11 21:18:00,76.8,68.0,29.99,North,350,0.0,-999.0,74,-99.99,,,0.00,weatherlink.com 1.10,2013-10-12 01:18:00,
2013-10-11 21:33:00,76.1,67.0,30.00,North,350,0.0,-999.0,74,-99.99,,,0.00,weatherlink.com 1.10,2013-10-12 01:33:00,
2013-10-11 21:48:00,75.6,66.0,30.00,North,350,0.0,-999.0,72,-99.99,,,0.00,weatherlink.com 1.10,2013-10-12 01:48:00,
2013-10-11 22:03:00,75.1,66.0,30.00,North,350,0.0,-999.0,73,-99.99,,,0.00,weatherlink.com 1.10,2013-10-12 02:03:00,
2013-10-11 22:18:00,74.7,66.0,30.00,North,350,0.0,-999.0,74,-99.99,,,0.00,weatherlink.com 1.10,2013-10-12 02:18:00,
2013-10-11 22:33:00,74.4,66.0,30.01,East,93,0.0,-999.0,74,-99.99,,,0.00,weatherlink.com 1.10,2013-10-12 02:33:00,
2013-10-11 22:48:00,74.3,66.0,30.01,East,96,0.0,-999.0,75,-99.99,,,0.00,weatherlink.com 1.10,2013-10-12 02:48:00,
2013-10-11 23:03:00,74.0,66.0,30.01,East,93,0.0,-999.0,76,-99.99,,,0.00,weatherlink.com 1.10,2013-10-12 03:03:00,
2013-10-11 23:18:00,73.7,66.0,30.01,East,93,0.0,-999.0,78,-99.99,,,0.00,weatherlink.com 1.10,2013-10-12 03:18:00,
2013-10-11 23:33:00,73.0,66.0,30.02,East,93,0.0,-999.0,79,-99.99,,,0.00,weatherlink.com 1.10,2013-10-12 03:33:00,
2013-10-11 23:48:00,72.7,67.0,30.02,East,93,0.0,-999.0,81,-99.99,,,0.00,weatherlink.com 1.10,2013-10-12 03:48:00,